Back to catalog

STARLINK-3681

AliveCommunicationsVLEO
NORAD 51968·PAYLOAD·🇺🇸 United States

Launched Mar 9, 2022 from Cape Canaveral Space Force Station

Loading…

Next Passes (next 24 hours)

TLE

FreshSource: CelesTrak SupGP

Epoch: Sep 14, 2026, 13:28 UTC

1 51968C 22025N   26257.56159722 -.00034974  00000+0 -11250-2 0  2575
2 51968  53.1592 225.3152 0001272  88.8428 115.2382 15.31709681    10

Track STARLINK-3681 in real time with AllMySat

Download on the App Store